Regional Weather Roundup
Issued by NWS

Home | Current Version | Previous Version | Graphics & Text | Print | Product List | Glossary On
Versions: 1 2 3 4 5 6 7 8 9 10 11 12 13 14 15 16 17 18 19 20 21 22 23 24 25 26 27 28 29 30 31 32 33 34 35 36 37 38 39 40 41 42 43 44 45 46 47 48 49 50
000
ASUS43 KLOT 220904
RWRIL

ILLINOIS REGIONAL WEATHER ROUNDUP
NATIONAL WEATHER SERVICE CHICAGO/ROMEOVILLE IL
300 AM CST THU FEB 22 2018

NOTE: "FAIR" INDICATES FEW OR NO CLOUDS BELOW 12,000 FEET WITH NO
SIGNIFICANT WEATHER AND/OR OBSTRUCTIONS TO VISIBILITY.

* THESE STATIONS ARE NOT UNDER NWS QUALITY CONTROL. THEY ALSO MAY NOT
  REPORT WEATHER SUCH AS PRECIPITATION OR FOG.

ILZ001-002-007-009-015-016-024-221000-
NORTHWEST ILLINOIS

CITY           SKY/WX    TMP DP  RH WIND       PRES   REMARKS
MOLINE         FAIR      28  19  69 NE10      30.51F WCI  19
STERLING*        N/A     27  21  78 MISG      30.54F
SAVANNA*       FAIR      26  17  68 NE9       30.55F WCI  16
$$

ILZ003-004-008-010-011-017-018-221000-
NORTH CENTRAL ILLINOIS

CITY           SKY/WX    TMP DP  RH WIND       PRES   REMARKS
ROCKFORD       CLOUDY    26  18  71 NE9       30.56F WCI  17
FREEPORT*      FAIR      24  17  74 NE10      30.57F WCI  14
ROCHELLE*      FAIR      27  22  80 NE14      30.53F WCI  16
DE KALB*       FAIR      27  22  82 NE13      30.53F WCI  16
PERU*          FAIR      28  22  80 NE14      30.51F WCI  16
$$

ILZ005-006-012>014-019>023-221000-
NORTHEAST ILLINOIS

CITY           SKY/WX    TMP DP  RH WIND       PRES   REMARKS
CHICAGO-OHARE  CLOUDY    31  23  72 NE13      30.54F WCI  21
CHICAGO-MIDWAY CLOUDY    32  26  78 NE13      30.53F WCI  22
AURORA         FAIR      29  23  78 NE10      30.52F WCI  20
LANSING*       MOCLDY    32  29  88 NE12      30.53F WCI  23
JOLIET*        FAIR      32  27  83 E12       30.51F WCI  23
WAUKEGAN       FAIR      29  22  75 NE10G17   30.55F WCI  20
DUPAGE AIRPORT FAIR      29  23  78 NE13      30.52F WCI  19
KANKAKEE*      CLOUDY    32  28  85 NE16      30.50F WCI  21
WHEELING       FAIR      32  24  72 NE10      30.56F WCI  24
MORRIS*        FAIR      31  26  83 NE7       30.50F WCI  24
ROMEOVILLE*    FAIR      31  26  84 E15       30.50F WCI  20
NORTHERLY ISL    N/A     31  27  85 NE16        N/A  WCI  20
$$

LMZ740>746-221000-
SOUTHERN LAKE MICHIGAN

STATION/POSITION SKY/WX   TEMP    WIND        PRES    VSBY  WAVE
                          AIR SEA DIR/SP/G                  HT/PER
                          (F)     (DEG/KT/KT) (MB)    (MI)  (FT/S)
HARRISON CRIB              33      50/ 19/ 20   N/A
BURNHAM HARBOR             31      50/ 14/ 17   N/A
CALUMET HARBOR             31      20/ 14/ 18 1034.0F
BURNS HARBOR               31      50/ 18/ 20 1034.2F
MICHIGAN CITY              30      30/ 17/ 19   N/A
$$

ILZ025>027-034>036-040-047-049-050-058-095>099-221000-
WEST-CENTRAL ILLINOIS

CITY           SKY/WX    TMP DP  RH WIND       PRES   REMARKS
QUINCY         CLOUDY    29  25  85 NE12      30.43F WCI  19
GALESBURG*     CLOUDY    28  24  82 NE15      30.48F WCI  17
MACOMB*        CLOUDY    29  26  89 NE13      30.48F WCI  18
JACKSONVILLE*  MIX PCPN  30  28  92 NE12      30.43F WCI  21
PITTSFIELD*    DRIZZLE   31  30  96 NE7       30.43F WCI  24
$$

ILZ028>032-037-038-041>044-048-051>054-059>061-221000-
CENTRAL ILLINOIS

CITY           SKY/WX    TMP DP  RH WIND       PRES   REMARKS
BLOOMINGTON    CLOUDY    30  28  92 NE22      30.44F WCI  17
DECATUR        CLOUDY    33  31  92 N16       30.41R WCI  23
PEORIA         CLOUDY    29  24  82 NE13      30.47F WCI  19
LACON*         CLOUDY    28  24  82 NE6       30.50R WCI  22
LINCOLN*       CLOUDY    32  31  96 NE13G18   30.45S WCI  22
SPRINGFIELD    CLOUDY    33  30  88 NE12      30.43S FOG     WCI  24
TAYLORVILLE    CLOUDY    32  31  96 CALM      30.43R
$$

ILZ033-039-045-046-055>057-062-063-221000-
EAST-CENTRAL ILLINOIS

CITY           SKY/WX    TMP DP  RH WIND       PRES   REMARKS
CHAMPAIGN      CLOUDY    33  32  96 NE17G25   30.39F WCI  22
DANVILLE*      LGT RAIN  33  32  96 NE15      30.38F WCI  23
RANTOUL*       CLOUDY    34  32  94 NE17      30.42S WCI  23
MATTOON        CLOUDY    35  34  96 NE15      30.33F FOG     WCI  25
PARIS*         CLOUDY    37  36  97 N8        30.38F WCI  30
$$

ILZ079-100>102-221000-
SOUTHWEST ILLINOIS

CITY           SKY/WX    TMP DP  RH WIND       PRES   REMARKS
ALTON          CLOUDY    32  32 100 N7        30.41S FOG     WCI  26
BELLEVILLE     LGT RAIN  34  32  93 NW14G22   30.38R WCI  24
CAHOKIA*       LGT SNOW  33  31  92 N15         N/A  FOG     WCI  23
SPARTA*        DRIZZLE   35  35 100 NW12G17   30.37R WCI  27
$$

ILZ064>066-069>071-074>076-080>082-084>086-088>090-092>094-221000-
SOUTH-CENTRAL ILLINOIS

CITY           SKY/WX    TMP DP  RH WIND       PRES   REMARKS
CARBONDALE     CLOUDY    40  39  97 MISG      30.24F
CAIRO*         CLOUDY    39  38  98 NE12G20   30.21F WCI  32
EFFINGHAM*     CLOUDY    37  37 100 N3        30.33F FOG
MARION         CLOUDY    38  38  99 SE12G25   30.25F WCI  31
MT. VERNON     CLOUDY    39  38  96 NE14      30.21F WCI  31
CENTRALIA*     CLOUDY    38  38  99 N8        30.30F WCI  33
SALEM*         CLOUDY    39  37  92 NE10G16   30.27F WCI  32
METROPOLIS*    DRIZZLE   40  39  96 E9        30.25F
$$

ILZ067-068-072-073-078-083-087-091-221000-
SOUTHEAST ILLINOIS

CITY           SKY/WX    TMP DP  RH WIND       PRES   REMARKS
LAWRENCEVILLE  LGT RAIN  41  40  96 E12       30.32F
FLORA*         CLOUDY    40  39  95 NE7       30.32S
FAIRFIELD*     LGT RAIN  39  39 100 CALM      30.25F
HARRISBURG*    DRIZZLE   39  39 100 E13       30.28F WCI  32
ROBINSON*      LGT RAIN  39  39  98 E12       30.33F WCI  32
CARMI*         CLOUDY    40  39  97 NE10      30.30F
$$

ABBREVIATIONS USED IN REMARKS
   TC - TEMPERATURE IN CELSIUS
  WCI - WIND CHILL INDEX
   HX - HEAT INDEX
  VSB - VISIBILITY
$$





USA.gov is the U.S. government's official web portal to all federal, state and local government web resources and services.